Temp
43 44 44 44 43 44 44 43 44 44 44 44 45 45 46 46 46 48 50 60 63 65 66 66 66 66 64 64 64 65 64 63 59 63 64 62 62 61 61 61 61 62 58
42 43 43 43 44 42 43 42 43 43 43 43 42 42 42 42 43 43 45 47 50 54 63 63 64 65 65 64 63 62 62 62 62 60 62 59 59 61 64 60 60 61 62
40 41 42 42 42 41 42 42 42 42 42 41 40 40 39 39 40 42 44 47 48 51 52 49 59 63 62 62 62 62 63 63 62 62 62 60 60 60 59 58 58 60 61
36 38 38 39 41 42 42 41 41 41 40 41 39 38 39 38 39 40 44 42 42 43 44 44 46 43 41 48 59 61 62 61 61 60 60 60 59 58 59 58 55 58 58
33 35 36 38 40 41 41 41 41 40 40 40 39 37 36 36 37 37 41 39 39 39 40 41 43 41 40 39 41 42 53 60 60 59 58 58 57 55 56 57 56 55 56
35 35 37 38 39 39 39 39 39 39 38 37 37 37 34 35 35 36 38 37 37 36 35 36 38 38 37 37 38 38 39 44 54 58 58 57 58 58 57 56 55 53 51
34 35 36 37 37 37 38 38 37 37 37 36 35 35 34 33 35 36 38 39 36 34 33 33 34 36 35 36 37 40 42 42 39 48 55 59 59 59 58 55 55 55 54
34 34 35 35 35 36 36 36 36 36 36 35 34 34 34 34 34 34 36 36 36 35 34 33 32 33 33 33 36 37 40 38 37 38 37 40 44 54 57 58 57 55 43
33 34 34 34 33 34 33 33 35 35 34 34 34 33 32 32 34 34 34 33 33 33 34 33 33 32 34 34 32 32 33 35 37 37 36 35 35 35 35 49 53 46 35
33 34 36 34 33 31 32 32 33 33 32 33 32 32 32 30 33 33 33 31 30 31 33 33 34 33 33 33 31 29 27 28 31 33 34 34 33 33 32 33 33 48 42
38 36 36 36 33 32 32 32 31 31 31 29 29 30 29 29 28 32 33 29 28 29 30 31 32 34 34 34 33 30 29 29 28 29 29 29 31 31 31 31 32 32 34
38 38 36 36 37 34 30 30 29 28 27 26 26 26 28 26 29 30 31 32 31 29 29 31 32 34 34 33 32 32 32 30 29 28 27 26 26 27 29 30 30 30 31
38 35 36 36 36 35 32 28 27 26 25 24 23 23 23 25 24 28 29 31 31 28 30 32 33 33 33 32 33 32 30 29 28 27 27 27 27 28 30 30 30 30 29
37 36 36 34 35 35 33 32 26 24 23 23 21 20 20 21 22 24 25 27 29 28 29 30 30 30 30 28 29 29 28 28 28 27 26 27 30 29 29 29 27 28 26
34 35 33 34 33 33 30 29 28 24 25 22 21 21 19 19 22 26 26 26 27 26 28 27 25 25 25 25 26 26 27 27 26 26 27 26 27 27 28 29 28 26 24
31 30 31 31 31 31 30 30 31 28 28 29 29 24 22 26 29 29 28 29 30 28 24 21 20 20 21 22 22 23 25 25 26 26 26 26 25 25 26 28 28 26 25
28 27 29 30 29 28 28 27 24 29 33 32 30 27 27 26 28 28 27 27 28 26 19 20 19 18 19 20 21 21 22 24 26 26 26 25 24 24 24 24 25 25 24
26 24 25 26 26 26 26 26 25 24 22 23 29 27 26 26 28 28 26 24 18 20 18 17 16 17 18 18 19 20 21 22 23 24 24 25 25 24 23 23 23 23 22
28 25 24 25 26 25 26 25 25 24 23 23 23 22 20 25 26 26 25 17 15 15 16 16 17 16 15 17 16 18 19 19 19 19 23 23 24 24 23 23 23 22 22
27 23 23 25 25 25 24 23 23 22 21 21 21 18 18 18 17 17 17 15 14 14 14 15 15 16 14 14 14 15 16 16 16 17 17 21 23 23 22 22 23 22 21
25 25 21 25 24 23 22 21 22 21 20 20 19 19 18 16 17 16 16 15 14 14 13 13 14 12 12 11 13 12 13 13 14 14 15 17 21 21 23 22 23 23 23
25 24 24 23 23 22 20 22 21 20 19 19 19 19 15 18 18 16 15 12 10 14 15 12 12 12 11 9 11 9 9 8 8 10 12 13 18 19 21 21 20 19 20
24 23 23 23 22 20 20 20 19 19 18 18 18 17 17 16 15 15 16 14 11 10 15 11 7 10 9 7 10 8 6 5 6 8 8 8 15 17 18 18 18 16 16
23 22 22 21 20 19 19 18 18 17 17 17 16 16 16 16 14 13 14 15 10 9 11 10 11 7 6 6 3 4 6 5 5 6 5 8 12 15 15 16 17 15 16
23 21 21 20 19 18 18 18 17 17 17 16 16 15 16 16 15 13 14 14 13 11 7 10 13 10 6 6 2 1 -2 0 2 4 5 7 13 13 12 11 12 13 11
22 22 21 20 19 19 18 17 17 16 15 15 15 15 15 15 15 15 13 8 11 6 8 10 10 11 9 8 4 1 -2 -1 -1 1 2 11 11 8 10 11 11 13 12
MSLP
1012.42 1011.50 1010.09 1008.68 1008.47 1009.07 1009.80 1009.77 1011.28 1009.79 1009.52 1009.71 1010.50 1010.51 1010.91 1010.72 1010.23 1009.47 1009.22 1008.21 1007.95 1007.83 1007.78 1007.40 1007.27 1007.26 1007.35 1007.60 1007.70 1007.55 1007.90 1008.10 1008.11 1007.67 1008.13 1008.15 1008.55 1008.94 1009.40 1009.79 1010.10 1010.64 1011.22
1013.43 1011.59 1010.86 1010.58 1010.60 1010.15 1010.82 1009.89 1011.65 1010.38 1012.32 1012.91 1010.95 1012.84 1012.62 1012.68 1011.77 1011.21 1010.68 1010.05 1009.68 1009.05 1007.93 1007.59 1007.07 1006.86 1006.98 1007.07 1007.31 1007.45 1006.41 1007.40 1007.59 1007.41 1007.28 1007.99 1008.27 1008.17 1008.59 1009.22 1009.58 1009.93 1010.31
1014.43 1012.95 1011.94 1011.69 1011.71 1011.94 1012.61 1012.93 1013.01 1012.82 1012.68 1013.38 1012.37 1014.52 1014.11 1014.06 1013.26 1012.33 1011.70 1011.06 1010.65 1010.27 1009.65 1009.38 1008.14 1007.37 1006.97 1007.01 1007.03 1006.77 1006.36 1006.90 1006.78 1006.86 1006.05 1007.03 1007.53 1007.57 1007.93 1008.60 1008.96 1009.31 1009.49
1016.69 1014.83 1014.07 1013.95 1013.91 1013.67 1013.27 1013.43 1013.83 1014.22 1014.34 1015.01 1015.30 1015.25 1015.37 1015.24 1014.86 1013.71 1012.79 1012.39 1011.97 1011.41 1011.51 1010.85 1010.74 1010.20 1009.90 1008.69 1007.31 1006.82 1006.63 1006.51 1006.29 1006.25 1006.18 1006.29 1006.65 1006.91 1007.20 1007.85 1008.36 1008.61 1008.80
1018.73 1017.58 1017.03 1016.84 1016.52 1016.04 1015.02 1015.75 1015.96 1015.50 1016.61 1015.33 1015.92 1016.43 1016.10 1016.02 1015.57 1015.13 1013.27 1013.19 1012.94 1012.82 1012.49 1011.83 1011.98 1011.88 1011.05 1010.51 1009.76 1008.45 1007.36 1005.95 1005.72 1005.39 1005.46 1005.69 1005.77 1006.23 1006.40 1006.67 1007.30 1007.94 1008.01
1020.08 1019.02 1018.58 1018.50 1018.49 1017.46 1017.39 1017.66 1017.50 1017.08 1016.30 1017.12 1017.07 1016.70 1016.86 1016.85 1015.79 1014.69 1015.62 1014.93 1014.81 1014.32 1013.74 1012.84 1013.08 1011.91 1010.69 1010.03 1008.84 1008.69 1008.67 1007.81 1006.35 1005.52 1005.34 1004.99 1004.80 1004.92 1005.40 1005.91 1006.55 1006.94 1007.43
1020.96 1020.47 1020.16 1020.41 1019.16 1018.99 1018.89 1018.74 1018.37 1018.32 1018.90 1019.12 1018.33 1018.16 1017.93 1018.20 1018.18 1017.67 1016.67 1016.67 1015.50 1015.76 1014.12 1013.95 1013.91 1012.86 1012.00 1010.63 1009.28 1007.97 1007.59 1006.37 1006.76 1006.33 1005.16 1003.97 1003.68 1003.63 1004.23 1004.78 1005.64 1005.78 1005.89
1021.56 1021.22 1021.24 1020.66 1019.93 1020.03 1019.68 1018.80 1018.55 1018.08 1018.77 1019.02 1019.16 1019.22 1019.58 1019.52 1018.91 1018.71 1018.01 1016.93 1016.57 1016.35 1016.10 1015.76 1014.79 1013.90 1012.94 1012.39 1010.57 1009.47 1008.72 1008.31 1007.64 1007.31 1006.74 1006.37 1004.93 1003.06 1003.09 1003.44 1004.42 1004.86 1005.96
1022.10 1021.81 1021.72 1021.54 1021.48 1021.11 1020.58 1020.26 1020.04 1020.31 1020.19 1020.07 1020.47 1020.75 1020.58 1020.43 1020.15 1020.02 1019.03 1018.40 1018.07 1017.36 1016.82 1016.43 1015.54 1014.71 1013.75 1013.24 1011.86 1011.31 1010.27 1009.46 1008.68 1008.33 1007.92 1006.61 1006.72 1005.82 1004.59 1003.95 1003.87 1004.69 1005.89
1023.50 1023.18 1022.92 1022.83 1022.45 1022.17 1021.97 1021.96 1022.08 1021.82 1021.72 1021.79 1021.88 1021.58 1021.88 1021.56 1020.86 1020.26 1019.92 1019.47 1018.54 1018.05 1017.63 1016.88 1016.04 1015.68 1014.90 1014.11 1013.29 1012.59 1011.49 1011.09 1009.76 1008.66 1007.77 1007.41 1006.75 1006.61 1005.15 1005.41 1005.38 1004.18 1005.09
1023.79 1023.63 1023.30 1023.24 1023.52 1023.58 1023.64 1023.70 1023.53 1023.20 1023.10 1023.01 1022.75 1022.64 1022.64 1022.42 1022.12 1021.46 1020.74 1020.31 1019.98 1019.08 1018.19 1017.37 1016.93 1016.30 1015.55 1014.93 1014.37 1013.71 1013.22 1012.31 1011.36 1010.43 1009.36 1008.76 1007.71 1007.41 1006.27 1006.47 1006.29 1005.82 1004.92
1024.37 1024.06 1024.15 1023.96 1023.99 1024.15 1024.34 1024.45 1024.44 1024.22 1023.92 1023.80 1023.52 1023.37 1023.28 1023.20 1022.72 1022.03 1021.55 1021.24 1020.55 1019.62 1018.94 1018.38 1017.78 1017.06 1016.37 1015.80 1015.03 1014.13 1013.19 1012.44 1011.66 1011.05 1010.48 1009.46 1008.42 1007.89 1007.79 1007.78 1007.32 1006.64 1006.01
1025.23 1025.38 1025.16 1025.09 1024.88 1024.98 1025.08 1025.36 1025.58 1025.57 1025.39 1025.36 1025.25 1025.00 1024.53 1024.12 1023.71 1023.15 1022.66 1021.78 1021.07 1020.38 1019.89 1019.22 1018.52 1017.70 1016.84 1016.14 1015.62 1014.89 1013.86 1013.27 1012.55 1012.00 1011.64 1010.94 1010.31 1009.63 1009.22 1008.32 1007.93 1007.55 1006.80
1026.22 1026.18 1025.93 1025.97 1025.77 1025.60 1025.88 1025.99 1026.44 1026.65 1026.67 1026.52 1026.37 1026.28 1026.14 1025.68 1025.00 1024.34 1023.52 1022.49 1021.80 1021.05 1020.08 1019.41 1018.94 1018.42 1017.67 1016.80 1016.01 1015.66 1015.28 1014.59 1013.81 1013.21 1012.65 1011.99 1011.26 1010.69 1009.94 1009.20 1009.00 1008.44 1007.26
1027.22 1026.99 1026.99 1026.61 1026.52 1026.45 1026.63 1026.75 1026.80 1027.40 1027.39 1027.27 1027.31 1027.28 1026.93 1026.38 1025.71 1025.04 1024.29 1023.14 1022.38 1021.80 1020.92 1020.43 1019.93 1019.34 1018.55 1018.03 1017.55 1017.05 1016.33 1015.52 1014.62 1013.97 1013.30 1012.65 1012.02 1011.41 1010.66 1010.01 1009.73 1009.28 1008.90
1028.18 1028.25 1027.86 1027.60 1027.52 1027.51 1027.18 1027.04 1027.06 1027.13 1027.26 1027.17 1027.11 1027.35 1027.22 1026.59 1025.52 1024.97 1024.32 1023.33 1022.57 1022.16 1021.54 1021.33 1021.10 1020.64 1020.12 1019.53 1018.82 1017.97 1017.21 1016.43 1015.52 1014.77 1014.20 1013.59 1012.96 1012.34 1011.89 1011.29 1010.57 1010.34 1009.99
1029.38 1029.50 1029.03 1028.49 1028.36 1028.17 1027.83 1027.60 1027.39 1027.04 1026.77 1026.72 1026.99 1027.18 1026.93 1026.81 1025.75 1025.18 1024.67 1024.02 1023.28 1022.86 1022.73 1022.42 1022.16 1021.87 1021.31 1020.73 1020.03 1019.23 1018.38 1017.68 1016.69 1015.83 1015.03 1014.52 1014.03 1013.48 1013.00 1012.48 1011.93 1011.40 1011.08
1029.95 1029.98 1029.72 1029.23 1028.87 1028.66 1028.36 1028.10 1027.81 1027.51 1027.27 1027.12 1026.91 1026.98 1027.03 1026.81 1025.92 1025.34 1025.07 1025.03 1024.58 1024.17 1023.95 1023.57 1023.43 1023.12 1022.43 1021.89 1021.33 1020.33 1019.47 1018.84 1018.00 1016.84 1016.18 1015.45 1014.77 1014.37 1013.89 1013.53 1013.02 1012.55 1012.09
1030.07 1030.09 1030.00 1029.54 1029.09 1028.77 1028.54 1028.38 1028.15 1027.98 1027.78 1027.53 1027.25 1027.37 1027.62 1027.11 1026.45 1026.10 1025.95 1026.09 1025.86 1025.41 1025.04 1024.67 1024.26 1023.82 1023.53 1023.20 1022.53 1021.62 1020.75 1020.06 1019.39 1018.53 1017.26 1016.58 1015.84 1015.20 1014.74 1014.43 1014.04 1013.68 1013.30
1030.32 1030.25 1030.07 1029.63 1029.23 1029.02 1028.87 1028.86 1028.66 1028.44 1028.23 1028.03 1027.85 1028.08 1028.00 1027.59 1026.99 1026.74 1026.57 1026.57 1026.48 1026.27 1025.99 1025.59 1025.19 1024.84 1024.53 1024.04 1023.40 1022.69 1021.90 1021.17 1020.55 1019.74 1018.85 1017.63 1016.76 1016.16 1015.56 1015.08 1014.89 1014.45 1014.20
1030.63 1030.36 1030.07 1029.74 1029.54 1029.44 1029.46 1029.42 1029.04 1028.82 1028.60 1028.41 1028.28 1028.06 1027.98 1027.84 1027.49 1027.26 1027.07 1027.06 1026.99 1026.74 1026.48 1026.31 1026.00 1025.70 1025.43 1025.06 1024.40 1023.78 1023.13 1022.53 1021.78 1021.01 1020.06 1019.08 1017.87 1016.98 1016.31 1015.77 1015.37 1014.98 1014.73
1030.73 1030.45 1030.17 1029.93 1029.78 1029.77 1029.78 1029.47 1029.27 1029.15 1028.91 1028.71 1028.48 1028.25 1028.05 1027.90 1027.70 1027.48 1027.30 1027.30 1027.32 1027.06 1026.78 1026.75 1026.59 1026.31 1026.19 1025.98 1025.35 1024.85 1024.29 1023.80 1023.18 1022.37 1021.44 1020.44 1018.96 1018.03 1017.20 1016.69 1016.54 1016.15 1015.86
1030.65 1030.48 1030.35 1030.13 1030.07 1029.92 1029.84 1029.64 1029.55 1029.34 1029.14 1028.92 1028.69 1028.45 1028.21 1028.03 1027.87 1027.68 1027.49 1027.39 1027.23 1027.17 1026.92 1026.89 1026.82 1026.62 1026.47 1026.33 1026.04 1025.83 1025.50 1025.08 1024.50 1023.57 1022.72 1021.62 1020.08 1019.10 1018.32 1017.72 1017.48 1017.21 1016.92
1030.66 1030.54 1030.42 1030.22 1030.08 1030.02 1029.86 1029.79 1029.60 1029.40 1029.23 1029.00 1028.79 1028.58 1028.35 1028.12 1027.90 1027.70 1027.46 1027.26 1027.29 1027.15 1026.96 1026.88 1026.57 1026.57 1026.41 1026.30 1026.28 1026.15 1026.08 1025.67 1025.10 1024.20 1023.57 1022.31 1021.02 1019.99 1019.40 1018.85 1018.45 1018.23 1017.85
1030.60 1030.49 1030.29 1030.20 1030.09 1029.97 1029.82 1029.65 1029.55 1029.41 1029.20 1029.01 1028.78 1028.58 1028.36 1028.11 1027.87 1027.68 1027.49 1027.36 1027.23 1027.25 1027.20 1026.84 1026.49 1026.36 1026.29 1026.13 1026.39 1026.23 1026.06 1025.75 1025.24 1024.57 1023.71 1022.64 1021.52 1020.84 1020.38 1019.69 1019.46 1018.93 1018.75
1030.63 1030.36 1030.20 1030.04 1029.91 1029.76 1029.61 1029.45 1029.29 1029.12 1028.97 1028.74 1028.57 1028.41 1028.19 1027.99 1027.77 1027.58 1027.44 1027.44 1027.41 1027.36 1027.09 1026.82 1026.59 1026.36 1026.10 1026.19 1026.16 1026.04 1025.93 1025.67 1025.22 1024.54 1023.85 1022.60 1021.92 1021.47 1021.13 1020.53 1020.11 1019.60 1019.39
Wind_Speed
11 10 11 18 19 18 15 17 11 16 17 18 15 17 15 15 16 13 13 9 8 11 10 12 15 11 7 8 8 8 9 7 9 7 6 6 7 7 6 7 7 8 8
10 15 17 19 18 20 18 22 17 21 15 14 18 16 16 16 14 14 13 12 11 14 11 10 11 10 12 9 6 7 8 9 8 14 7 4 6 6 9 10 7 7 9
19 16 19 20 20 20 17 17 17 16 16 17 20 16 17 17 16 14 11 11 11 12 12 16 14 10 9 7 8 8 12 9 8 10 10 5 6 4 5 5 7 9 8
18 20 21 20 19 18 18 20 18 17 18 15 16 16 17 17 17 15 13 13 12 13 14 15 14 16 18 16 8 10 10 11 10 10 9 9 5 4 6 8 5 7 8
16 18 19 18 17 16 19 17 16 18 15 16 15 16 16 17 16 17 15 17 16 13 14 15 14 18 20 16 9 12 14 12 11 12 11 8 7 4 11 6 8 6 8
18 20 16 18 16 18 17 17 16 17 20 18 19 19 21 16 33 33 16 14 14 16 14 14 14 21 23 25 24 18 12 9 13 12 11 12 14 12 8 9 9 6 5
16 18 18 15 18 18 16 18 18 18 15 15 18 17 19 21 32 30 23 9 13 13 17 18 14 13 19 20 22 20 19 16 9 11 14 14 14 15 10 10 11 10 8
16 17 17 17 19 17 16 18 18 18 17 15 17 18 15 17 32 31 21 14 12 13 12 13 15 16 21 22 17 16 15 11 12 10 11 13 13 3 11 13 14 11 4
17 17 16 18 17 17 19 18 16 15 14 15 14 16 18 17 32 31 22 15 14 14 14 13 16 16 27 29 16 16 15 12 11 11 10 11 15 18 15 5 9 5 2
10 13 12 12 15 16 16 17 14 13 14 11 13 14 21 17 29 32 26 11 15 12 14 14 23 21 26 27 15 14 15 15 15 14 10 9 10 9 15 7 8 9 6
11 9 11 10 11 12 13 13 13 12 12 13 13 12 14 19 19 31 30 15 12 10 10 12 11 25 24 24 22 14 13 12 13 10 8 8 8 9 9 7 7 4 1
12 12 13 10 9 9 12 12 14 14 13 14 14 12 11 14 26 27 29 26 24 12 12 10 11 22 21 19 15 22 20 12 8 9 9 9 9 10 9 8 6 6 5
11 12 10 12 9 10 10 10 10 11 11 11 10 11 11 11 12 26 27 26 23 12 11 14 20 20 19 13 18 20 15 10 10 10 10 9 8 7 8 5 7 6 8
11 11 10 10 10 9 7 7 7 7 8 8 9 9 10 10 11 11 12 12 16 13 13 10 12 13 11 11 12 12 9 9 9 8 7 7 7 7 6 5 4 4 6
10 10 10 9 10 10 7 6 6 4 6 5 5 6 8 8 10 18 18 11 9 11 9 7 9 10 11 11 10 10 9 10 9 9 9 8 8 8 7 7 5 6 6
10 8 7 7 7 7 7 6 7 7 7 9 13 9 7 18 22 23 25 24 22 20 7 8 9 9 10 11 11 11 10 11 10 8 8 8 8 8 8 6 6 6 5
8 9 7 7 6 7 7 7 6 7 12 12 12 15 22 22 23 22 24 24 23 16 9 9 9 10 10 11 10 10 10 11 10 9 7 7 7 7 9 7 7 6 7
4 7 6 6 4 5 5 6 5 6 7 6 9 12 19 23 22 21 22 17 10 11 9 9 8 8 10 10 11 10 10 10 11 9 9 9 6 5 6 7 7 7 6
4 4 4 5 4 5 5 6 6 6 6 6 6 6 9 19 19 19 17 7 8 9 9 9 9 8 8 9 10 10 10 9 10 11 8 8 9 6 6 7 6 9 8
5 5 4 5 5 6 6 6 6 6 6 7 6 4 5 8 7 7 7 6 6 7 7 9 9 9 9 9 9 9 10 9 10 10 11 10 7 7 6 6 6 3 4
4 4 6 5 5 5 6 7 6 6 6 6 5 4 4 6 6 6 6 5 6 7 6 7 7 7 8 9 10 9 10 9 10 10 10 11 9 7 6 7 7 5 3
3 4 5 5 4 4 5 6 6 7 7 7 7 7 7 5 6 6 5 3 2 5 5 4 6 5 6 7 9 9 9 9 10 11 11 12 10 8 7 7 7 7 7
4 4 5 5 5 5 6 5 6 6 6 6 6 7 6 5 4 6 6 3 2 2 4 3 2 4 4 3 6 7 8 9 10 10 10 11 9 9 9 5 5 4 5
5 4 5 5 4 5 5 5 6 6 6 6 6 6 7 6 5 4 5 4 2 2 3 3 2 2 2 3 2 3 6 7 8 9 12 10 10 8 6 6 6 7 6
5 4 4 5 5 5 5 5 5 6 6 6 6 5 6 6 5 4 4 4 4 3 3 5 4 3 4 3 3 3 4 8 9 11 8 11 9 9 9 4 6 3 4
6 5 5 5 5 5 6 6 6 5 6 5 5 5 6 6 5 5 3 2 2 3 5 3 5 7 6 4 3 3 6 8 9 12 9 8 7 5 6 6 9 5 4
Wind_Direction
2 25 28 50 55 56 56 55 40 57 30 37 35 29 23 16 11 8 5 348 264 247 248 236 239 242 226 233 232 232 236 229 231 244 236 209 184 175 171 195 191 194 198
357 33 46 49 56 60 46 53 32 49 45 29 52 28 21 16 14 13 3 357 340 346 271 244 247 249 245 242 243 243 288 240 225 240 215 233 219 204 192 187 192 208 214
10 26 36 42 46 50 54 59 51 53 48 45 47 33 26 17 10 10 4 2 357 354 354 6 318 254 250 240 247 240 233 240 242 238 239 196 225 190 178 176 190 206 219
5 24 35 35 37 39 47 45 42 50 45 51 47 42 34 23 14 7 22 21 26 23 9 9 357 17 10 353 296 242 242 243 233 229 231 235 199 197 187 194 204 216 221
22 31 33 32 33 41 46 45 45 51 47 43 47 43 40 31 18 8 23 23 17 20 18 19 3 1 2 6 351 339 317 247 235 230 223 219 201 177 206 189 214 209 205
22 28 34 36 37 40 44 44 47 45 39 33 30 36 34 23 13 13 15 24 19 19 10 15 2 2 359 349 345 332 294 308 294 241 220 230 226 219 195 199 206 193 199
30 35 33 30 39 40 39 44 43 43 45 42 38 36 36 27 22 11 13 21 30 12 17 14 4 7 358 351 340 346 335 335 289 281 285 244 233 215 190 193 207 207 196
32 35 32 30 34 32 31 35 36 35 34 37 37 33 32 28 23 19 15 18 18 19 21 12 8 4 6 355 347 349 348 7 7 9 7 344 338 266 188 196 207 202 61
29 28 30 29 29 28 31 29 34 33 31 33 36 34 31 27 23 20 19 18 14 16 17 8 13 10 8 4 4 352 345 351 352 339 353 28 5 6 21 256 205 174 156
42 30 33 43 37 31 30 26 23 30 32 26 29 34 30 25 19 19 20 13 10 8 8 10 13 12 10 10 10 3 357 344 342 346 1 358 12 3 32 21 336 202 156
23 43 25 45 51 45 38 32 23 26 29 24 24 23 28 22 14 15 16 15 4 353 357 2 1 4 9 11 13 9 1 343 346 347 357 358 7 358 13 17 7 354 67
28 28 31 20 43 44 44 35 25 20 24 22 17 17 18 18 12 11 7 10 3 355 354 355 352 358 1 5 8 4 4 360 5 3 3 3 10 6 0 356 353 13 16
39 20 34 20 31 45 34 47 31 24 23 22 14 11 5 9 5 5 358 357 1 354 345 352 354 355 1 2 8 7 5 3 6 7 1 359 353 344 337 344 347 344 34
22 38 16 24 20 37 39 40 54 34 28 25 18 14 3 0 356 357 354 345 353 351 340 355 355 353 358 358 4 5 4 2 2 4 358 349 344 350 354 0 342 322 26
31 20 14 23 18 13 62 32 56 73 60 40 36 23 4 357 359 360 357 347 359 350 356 2 4 1 2 5 2 359 359 356 4 359 0 356 356 353 357 1 10 15 48
27 8 16 14 18 10 11 17 104 116 90 60 45 41 16 359 358 3 2 358 9 6 7 14 8 5 1 0 359 352 356 357 352 357 1 3 359 3 356 355 10 22 32
17 15 349 12 18 5 6 8 1 4 6 15 49 34 23 8 351 5 7 6 5 14 11 11 12 4 358 355 355 353 351 353 345 358 355 4 5 4 2 3 7 16 25
344 53 346 344 9 354 353 356 354 356 351 350 359 29 19 3 350 7 12 7 3 11 8 4 5 5 359 354 349 351 350 352 351 352 1 355 360 10 8 11 11 15 20
6 37 342 333 349 351 0 358 349 353 346 345 348 28 16 359 355 5 18 18 3 1 1 359 359 4 5 352 347 347 348 354 353 347 351 359 354 3 14 6 19 21 23
6 25 356 332 356 356 359 359 339 344 345 347 353 26 355 347 352 359 5 16 8 359 360 357 356 3 2 354 349 348 346 356 356 350 345 345 351 1 4 13 7 28 40
345 355 344 354 355 1 7 339 335 346 343 341 347 1 356 341 344 351 355 11 3 354 2 359 351 0 4 351 347 349 350 355 352 348 342 338 348 351 359 9 1 360 6
331 351 345 344 358 3 345 319 350 342 339 345 340 343 347 345 346 342 349 358 352 357 353 0 349 360 15 349 348 353 354 354 347 341 339 335 338 352 359 12 19 12 15
327 0 341 342 348 348 335 341 344 329 335 336 336 332 337 339 340 338 340 347 354 350 346 349 335 1 8 345 8 359 358 346 334 330 333 328 330 356 349 11 19 12 3
299 344 327 328 335 330 330 335 321 329 330 330 328 331 331 329 328 327 331 342 330 329 343 330 318 352 354 342 20 7 3 334 330 326 326 320 322 338 348 7 8 15 5
324 312 314 327 321 317 315 314 314 315 317 319 321 323 320 319 321 325 335 340 333 3 331 324 329 341 327 46 34 33 349 336 326 326 319 313 321 8 354 344 358 343 16
297 309 309 304 305 305 305 304 301 299 301 300 302 305 309 312 312 315 318 309 8 308 320 330 338 340 313 73 8 41 10 339 331 327 327 328 354 357 354 343 360 344 27